Location: Aragoneses
(41.0275°N, 4.3847°W)
Time: 14:24:52
(UTC+00:00)

BlueWalker 3 - Visible Passes

Search period start: 15 February 2026 00:00
Search period end: 25 February 2026 00:00
Orbit: 450 x 461 km, 53.2° (Epoch: 14 February)

Date Brightness Start Highest point End Pass type
(mag) Time Alt. Az. Time Alt. Az. Time Alt. Az.
19 Feb 5.1 06:36:35 10° SSE 06:38:02 12° SE 06:39:29 10° ESE visible
22 Feb 3.1 06:24:13 10° SSW 06:27:37 42° SE 06:31:03 10° ENE visible
23 Feb 3.5 05:48:38 10° SSW 05:51:51 31° SE 05:55:04 10° ENE visible
24 Feb 3.9 05:13:45 13° S 05:16:05 23° SE 05:18:59 10° ENE visible
